Regional Weather Roundup
Issued by NWS Cleveland, OH

Home | Current Version | Previous Version | Graphics & Text | Print | Product List | Glossary On
Versions: 1 2 3 4 5 6 7 8 9 10 11 12 13 14 15 16 17 18 19 20 21 22 23 24 25 26 27 28 29 30 31 32 33 34 35 36 37 38 39 40 41 42 43 44 45 46 47 48 49 50
000
ASUS41 KCLE 082202
RWRCLE
OHIO REGIONAL WEATHER ROUNDUP
NATIONAL WEATHER SERVICE CLEVELAND, OH
500 PM EST THU DEC 08 2016

NOTE: "FAIR" INDICATES FEW OR NO CLOUDS BELOW 12,000 FEET WITH NO
SIGNIFICANT WEATHER AND/OR OBSTRUCTIONS TO VISIBILITY.

OHZ001>008-015>018-024>027-034-035-043-044-082300-
   NORTHWEST OHIO

CITY           SKY/WX    TMP DP  RH WIND       PRES   REMARKS
DEFIANCE       FLURRIES  24  14  65 W9G20     30.27R WCI  14
FINDLAY        CLOUDY    24  12  60 W20G26    30.26R WCI  10
TOLEDO EXPRESS FLURRIES  23  17  78 W20       30.23R WCI   8
TOLEDO EXEC    LGT SNOW  24  17  74 W18G28    30.23R WCI  10
LIMA           FLURRIES  22  15  75 W16G24    30.27R WCI   8
$$

OHZ009>014-019>023-028>033-038-089-082300-
   NORTHEAST OHIO

CITY           SKY/WX    TMP DP  RH WIND       PRES   REMARKS
CLE-HOPKINS    CLOUDY    27  15  61 W16G31    30.20R WCI  15
CLE-LAKEFRONT  LGT SNOW  27  18  69 SW21G32   30.16R WCI  13
CUY CO. ARPT   LGT SNOW  27  19  74 W12G21    30.14R WCI  16
LORAIN-ELYRIA  CLOUDY    24  15  68 W20       30.19R WCI  10
ASHTABULA      SNOW      24  22  91 SW15      30.10R VSB 1/4 WCI  11
AKRON-CANTON   FLURRIES  24  14  65 W17G29    30.17R WCI  11
WOOSTER        FLURRIES  23  15  71 W16G26    30.20R WCI  10
MANSFIELD      LGT SNOW  22  14  71 W12G21    30.20R WCI  10
YOUNGSTOWN     FLURRIES  25  15  66 W16G25    30.12R WCI  12
$$

OHZ042-051>053-060>062-070>072-077>081-082300-
  SOUTHWEST OHIO

CITY           SKY/WX    TMP DP  RH WIND       PRES   REMARKS
CINC-COVINGTON PTCLDY    26  15  63 NW15      30.34R WCI  14
CINC-LUNKEN    MOCLDY    28  15  58 NW9       30.38R WCI  19
HAMILTON       CLOUDY    25  14  63 W13G21    30.37R WCI  14
DAYTON         CLOUDY    24  13  62 W16G29    30.31R WCI  11
WRIGHT-PAT AFB NOT AVBL
DAYTON GENERAL CLOUDY    24  14  65 W10       30.32R WCI  14
WILMINGTON     CLOUDY    23  13  65 W16G23    30.31R WCI  10
$$

OHZ036-037-039>041-045>050-054>059-063>069-073>076-082>088-082300-
  CENTRAL AND SOUTHEAST OHIO

CITY           SKY/WX    TMP DP  RH WIND       PRES   REMARKS
COLUMBUS       FLURRIES  24  16  71 W13       30.29R WCI  12
OSU AIRPORT    FLURRIES  24  15  68 W16G22    30.28R WCI  11
BOLTON FIELD   CLOUDY    25  14  63 W13G22    30.31R WCI  13
RICKENBACK AFB   N/A     25  14  64 W17G24    30.31R WCI  11
NEWARK         CLOUDY    25  13  60 W17       30.27R WCI  12
MARION         LGT SNOW  23  18  81 W12G22    30.26R WCI  12
LANCASTER      CLOUDY    25  14  63 W10G21    30.29R WCI  15
ZANESVILLE     CLOUDY    26  14  60 W16G24    30.25R WCI  14
NEW PHILLY     NOT AVBL
$$



USA.gov is the U.S. government's official web portal to all federal, state and local government web resources and services.